Date String (YYYY-MM-DD hh:mm:ss) UTC,Instrument flags,Ambient pressure (hPa),Sample flow (lpm),Bypass flow (lpm),Sample temperature (°C),Ambient temperature (°C),ASC tube jacket temperature (°C),LED temperature (°C),Box temperature (°C),Sample RH (%),Mass concentration (μg/m³),Mass concentration (μg/m³)
DateTimeUTC,F1_M11,P_M11,Q1_M11,Q2_M11,T1_M11,T2_M11,T3_M11,T4_M11,T5_M11,U1_M11,X0_M11,X2_M11
2021-08-11 06:00:00,FlowAlarm;OPCInstrumentWarning,0827.9,5.00,0.00,29.2,27.5,00.0,38.4,31.0,14.9,0039.03,0028.76
2021-08-11 06:01:00,FlowAlarm;OPCInstrumentWarning,0827.9,5.00,0.00,29.2,27.7,00.0,38.4,31.1,15.0,0039.07,0028.92
2021-08-11 06:02:00,FlowAlarm;OPCInstrumentWarning,0827.9,5.01,0.00,29.2,27.9,00.0,38.4,31.2,15.0,0039.23,0029.11
2021-08-11 06:03:00,FlowAlarm;OPCInstrumentWarning,0827.9,5.00,0.00,29.2,28.1,00.0,38.4,31.2,14.9,0039.37,0029.28
2021-08-11 06:04:00,FlowAlarm;OPCInstrumentWarning,0827.9,5.01,0.00,29.3,28.3,00.0,38.4,31.3,14.9,0039.52,0029.44
2021-08-11 06:05:00,FlowAlarm;OPCInstrumentWarning,0827.8,4.99,0.00,29.3,28.4,00.0,38.4,31.3,14.8,0039.94,0029.60
2021-08-11 06:06:00,FlowAlarm;OPCInstrumentWarning,0827.9,5.00,0.00,29.4,28.5,00.0,38.5,31.4,14.9,0040.23,0029.69
2021-08-11 06:07:00,FlowAlarm;OPCInstrumentWarning,0827.9,5.00,0.00,29.4,28.6,00.0,38.5,31.4,15.0,0039.96,0029.72
2021-08-11 06:08:00,FlowAlarm;OPCInstrumentWarning,0827.9,5.01,0.00,29.5,28.6,00.0,38.5,31.5,15.0,0040.14,0029.73
2021-08-11 06:09:00,FlowAlarm;OPCInstrumentWarning,0827.9,5.00,0.00,29.5,28.7,00.0,38.5,31.5,14.9,0040.20,0029.74
2021-08-11 06:10:00,FlowAlarm;OPCInstrumentWarning,0827.9,5.00,0.00,29.6,28.7,00.0,38.6,31.5,14.9,0039.98,0029.72
2021-08-11 06:11:00,FlowAlarm;OPCInstrumentWarning,0827.9,5.01,0.00,29.5,27.3,00.0,38.6,31.2,15.1,0040.06,0029.77
2021-08-11 06:12:00,FlowAlarm;OPCInstrumentWarning,0827.9,5.00,0.00,29.4,26.4,00.0,38.5,30.9,15.0,0040.17,0029.85
2021-08-11 06:13:00,FlowAlarm;OPCInstrumentWarning,0827.9,4.99,0.00,29.3,26.5,00.0,38.5,30.9,15.0,0040.39,0029.93
2021-08-11 06:14:00,FlowAlarm;OPCInstrumentWarning,0827.9,5.01,0.00,29.2,26.8,00.0,38.5,31.0,15.1,0040.55,0030.01
2021-08-11 06:15:00,FlowAlarm;OPCInstrumentWarning,0827.9,5.00,0.00,29.2,27.2,00.0,38.4,31.0,15.0,0041.25,0030.12
2021-08-11 06:16:00,FlowAlarm;OPCInstrumentWarning,0827.9,5.00,0.00,29.2,27.5,00.0,38.4,31.1,15.0,0041.28,0030.20
2021-08-11 06:17:00,FlowAlarm;OPCInstrumentWarning,0827.9,4.99,0.00,29.2,27.7,00.0,38.4,31.2,15.0,0040.53,0030.29
2021-08-11 06:18:00,FlowAlarm;OPCInstrumentWarning,0827.9,5.00,0.00,29.3,28.0,00.0,38.4,31.2,15.0,0040.69,0030.39
2021-08-11 06:19:00,FlowAlarm;OPCInstrumentWarning,0827.9,5.01,0.00,29.3,28.1,00.0,38.5,31.3,14.9,0040.61,0030.44
2021-08-11 06:20:00,FlowAlarm;OPCInstrumentWarning,0827.9,4.98,0.00,29.3,28.3,00.0,38.5,31.3,14.8,0040.63,0030.53
2021-08-11 06:21:00,FlowAlarm;OPCInstrumentWarning,0827.9,5.01,0.00,29.4,28.4,00.0,38.5,31.3,14.7,0040.89,0030.74
2021-08-11 06:22:00,FlowAlarm;OPCInstrumentWarning,0827.9,5.00,0.00,29.4,28.5,00.0,38.5,31.4,14.6,0041.13,0030.95
2021-08-11 06:23:00,FlowAlarm;OPCInstrumentWarning,0828.0,5.01,0.00,29.5,28.6,00.0,38.5,31.4,14.6,0041.22,0031.10
2021-08-11 06:24:00,FlowAlarm;OPCInstrumentWarning,0828.0,4.99,0.00,29.5,28.6,00.0,38.5,31.5,14.6,0041.18,0031.21
2021-08-11 06:25:00,FlowAlarm;OPCInstrumentWarning,0828.0,4.99,0.00,29.6,28.7,00.0,38.6,31.5,14.5,0041.11,0031.21
2021-08-11 06:26:00,FlowAlarm;OPCInstrumentWarning,0827.9,5.00,0.00,29.6,28.7,00.0,38.6,31.5,14.4,0040.82,0031.25
2021-08-11 06:27:00,FlowAlarm;OPCInstrumentWarning,0827.9,4.99,0.00,29.6,27.2,00.0,38.6,31.2,14.3,0040.85,0031.28
2021-08-11 06:28:00,FlowAlarm;OPCInstrumentWarning,0828.0,5.02,0.00,29.4,26.3,00.0,38.6,30.9,14.5,0040.86,0031.32
2021-08-11 06:29:00,FlowAlarm;OPCInstrumentWarning,0827.9,5.00,0.00,29.3,26.5,00.0,38.6,31.0,14.6,0040.91,0031.40
2021-08-11 06:30:00,FlowAlarm;OPCInstrumentWarning,0827.9,4.99,0.00,29.3,26.8,00.0,38.5,31.0,14.6,0041.08,0031.50
2021-08-11 06:31:00,FlowAlarm;OPCInstrumentWarning,0827.9,4.99,0.00,29.2,27.2,00.0,38.5,31.1,14.6,0041.49,0031.59
2021-08-11 06:32:00,FlowAlarm;OPCInstrumentWarning,0828.0,5.00,0.00,29.2,27.5,00.0,38.5,31.1,14.7,0041.73,0031.59
2021-08-11 06:33:00,FlowAlarm;OPCInstrumentWarning,0828.0,5.00,0.00,29.3,27.8,00.0,38.5,31.2,14.8,0041.78,0031.58
2021-08-11 06:34:00,FlowAlarm;OPCInstrumentWarning,0828.0,5.01,0.00,29.3,28.0,00.0,38.5,31.2,14.8,0041.64,0031.51
2021-08-11 06:35:00,FlowAlarm;OPCInstrumentWarning,0828.0,5.00,0.00,29.3,28.1,00.0,38.5,31.3,14.7,0041.70,0031.51
2021-08-11 06:36:00,FlowAlarm;OPCInstrumentWarning,0827.9,5.00,0.00,29.3,28.3,00.0,38.5,31.3,14.7,0041.86,0031.61
2021-08-11 06:37:00,FlowAlarm;OPCInstrumentWarning,0828.0,5.00,0.00,29.4,28.4,00.0,38.5,31.4,14.6,0041.60,0031.59
2021-08-11 06:38:00,FlowAlarm;OPCInstrumentWarning,0828.0,4.99,0.00,29.4,28.5,00.0,38.5,31.4,14.5,0041.50,0031.57
2021-08-11 06:39:00,FlowAlarm;OPCInstrumentWarning,0828.0,5.01,0.00,29.5,28.6,00.0,38.6,31.4,14.5,0041.93,0031.55
2021-08-11 06:40:00,FlowAlarm;OPCInstrumentWarning,0828.0,5.00,0.00,29.5,28.6,00.0,38.6,31.5,14.5,0042.03,0031.50
2021-08-11 06:41:00,FlowAlarm;OPCInstrumentWarning,0828.0,5.00,0.00,29.6,28.7,00.0,38.6,31.6,14.5,0041.93,0031.53
2021-08-11 06:42:00,FlowAlarm;OPCInstrumentWarning,0827.9,5.00,0.00,29.6,28.7,00.0,38.6,31.6,14.4,0041.69,0031.58
2021-08-11 06:43:00,FlowAlarm;OPCInstrumentWarning,0828.0,4.99,0.00,29.6,27.2,00.0,38.6,31.2,14.5,0041.39,0031.59
2021-08-11 06:44:00,FlowAlarm;OPCInstrumentWarning,0828.0,5.00,0.00,29.4,26.2,00.0,38.6,30.9,14.6,0041.29,0031.62
2021-08-11 06:45:00,FlowAlarm;OPCInstrumentWarning,0828.0,5.00,0.00,29.3,26.4,00.0,38.6,30.9,14.7,0041.29,0031.64
2021-08-11 06:46:00,FlowAlarm;OPCInstrumentWarning,0828.0,5.02,0.00,29.2,26.7,00.0,38.5,31.0,14.8,0041.25,0031.61
2021-08-11 06:47:00,FlowAlarm;OPCInstrumentWarning,0827.9,5.00,0.00,29.2,27.1,00.0,38.5,31.0,14.9,0041.22,0031.62
2021-08-11 06:48:00,FlowAlarm;OPCInstrumentWarning,0827.9,5.00,0.00,29.2,27.4,00.0,38.5,31.1,15.0,0041.42,0031.70
2021-08-11 06:49:00,FlowAlarm;OPCInstrumentWarning,0827.9,5.00,0.00,29.2,27.7,00.0,38.5,31.1,15.0,0042.12,0031.79
2021-08-11 06:50:00,FlowAlarm;OPCInstrumentWarning,0827.9,5.00,0.00,29.3,27.9,00.0,38.5,31.2,14.9,0042.76,0031.86
2021-08-11 06:51:00,FlowAlarm;OPCInstrumentWarning,0827.8,5.01,0.00,29.3,28.1,00.0,38.5,31.3,14.8,0043.45,0031.92
2021-08-11 06:52:00,FlowAlarm;OPCInstrumentWarning,0827.8,4.99,0.00,29.3,28.2,00.0,38.5,31.3,14.7,0043.76,0031.94
2021-08-11 06:53:00,FlowAlarm;OPCInstrumentWarning,0827.9,5.00,0.00,29.4,28.4,00.0,38.5,31.3,14.7,0043.77,0031.95
2021-08-11 06:54:00,FlowAlarm;OPCInstrumentWarning,0827.9,5.01,0.00,29.4,28.4,00.0,38.5,31.4,14.7,0044.01,0032.05
2021-08-11 06:55:00,FlowAlarm;OPCInstrumentWarning,0827.9,5.00,0.00,29.5,28.5,00.0,38.6,31.4,14.8,0044.13,0032.12
2021-08-11 06:56:00,FlowAlarm;OPCInstrumentWarning,0827.9,4.99,0.00,29.5,28.6,00.0,38.6,31.5,14.7,0044.61,0032.24
2021-08-11 06:57:00,FlowAlarm;OPCInstrumentWarning,0827.9,5.00,0.00,29.5,28.6,00.0,38.6,31.5,14.5,0044.98,0032.38
2021-08-11 06:58:00,FlowAlarm;OPCInstrumentWarning,0827.9,5.01,0.00,29.6,28.7,00.0,38.6,31.5,14.5,0046.08,0032.51
2021-08-11 06:59:00,FlowAlarm;OPCInstrumentWarning,0827.9,4.99,0.00,29.6,28.8,00.0,38.6,31.6,14.6,0047.14,0032.63
